Weather History for KONZ - August, 2013

Change the Weather History Date:

Wednesday, August 21, 2013

  Actual Average (KDTW) Record (KDTW)
Temperature  
Mean Temperature 76 °F 72 °F  
Max Temperature 82 °F 81 °F 100 °F (1955)
Min Temperature 69 °F 62 °F 46 °F (1876)
Degree Days  
Heating Degree Days 0 0  
Month to date heating degree days 0  
Since 1 June heating degree days 37  
Since 1 July heating degree days 2  
Cooling Degree Days 10 7  
Month to date cooling degree days 162  
Year to date cooling degree days 648  
Since 1 June cooling degree days 600  
Growing Degree Days 26 (Base 50)    
Moisture  
Dew Point 67 °F    
Average Humidity 74    
Maximum Humidity 89    
Minimum Humidity 61    
Precipitation  
Precipitation 0.00 in 0.08 in 2.72 in (1890)
Month to date precipitation 2.08  
Year to date precipitation 21.51  
Snow  
Snow 0.00 in 0.00 in 0.00 in ()
Month to date snowfall 0.0  
Since 1 June snowfall 0.0  
Since 1 July snowfall 0.0  
Snow Depth -    
Sea Level Pressure  
Sea Level Pressure 30.09 in    
Wind  
Wind Speed 5 mph (South)    
Max Wind Speed 12 mph    
Max Gust Speed -    
Visibility 10 miles    
Events      
T = Trace of Precipitation, MM = Missing Value Source: NWS Daily Summary

Daily Weather History Graph

Daily Weather History Graph

Search for Another Location

Airport or City:

Trip Planner

Search our weather history database for the weather conditions in past years. The results will help you decide how hot, cold, wet, or windy it might be!

Date:

Astronomy

Aug. 21, 2013 Rise Set
Actual Time 6:46 AM EDT 8:23 PM EDT
Civil Twilight 6:17 AM EDT 8:53 PM EDT
Nautical Twilight 5:41 AM EDT 9:28 PM EDT
Astronomical Twilight 5:03 AM EDT 10:06 PM EDT
Moon 8:29 PM EDT (8/21) 7:27 AM EDT (8/21)
Length of Visible Light 14h 35m
Length of Day
13h 36m
Full, 100% of the Moon is Illuminated
Aug 21
Full
Aug 28
Last Quarter
Sep 5
New
Sep 12
First Quarter
Sep 19
Full

Hourly Weather History & Observations

Time (EDT) Temp. Heat Index Dew Point Humidity Pressure Visibility Wind Dir Wind Speed Gust Speed Precip Events Conditions
12:14 AM 75.2 °F - 66.2 °F 73% 30.12 in 10.0 mi SSW 5.8 mph - N/A   Clear
12:33 AM 75.2 °F - 68.0 °F 78% 30.12 in 10.0 mi SSW 5.8 mph - N/A   Clear
12:54 AM 75.2 °F - 66.2 °F 73% 30.12 in 10.0 mi SSW 5.8 mph - N/A   Clear
1:14 AM 75.2 °F - 66.2 °F 73% 30.12 in 10.0 mi SSW 6.9 mph - N/A   Clear
1:34 AM 73.4 °F - 66.2 °F 78% 30.12 in 10.0 mi SSW 6.9 mph - N/A   Clear
1:54 AM 73.4 °F - 66.2 °F 78% 30.12 in 10.0 mi SSW 5.8 mph - N/A   Clear
2:14 AM 73.4 °F - 66.2 °F 78% 30.12 in 10.0 mi SSW 4.6 mph - N/A   Clear
2:34 AM 73.4 °F - 66.2 °F 78% 30.11 in 10.0 mi SSW 5.8 mph - N/A   Clear
2:54 AM 73.4 °F - 66.2 °F 78% 30.12 in 10.0 mi SSW 3.5 mph - N/A   Clear
3:14 AM 71.6 °F - 66.2 °F 83% 30.12 in 10.0 mi SSW 3.5 mph - N/A   Clear
3:34 AM 73.4 °F - 66.2 °F 78% 30.11 in 10.0 mi Calm Calm - N/A   Clear
3:54 AM 71.6 °F - 66.2 °F 83% 30.12 in 10.0 mi Calm Calm - N/A   Clear
4:14 AM 71.6 °F - 64.4 °F 78% 30.12 in 10.0 mi SW 3.5 mph - N/A   Clear
4:34 AM 71.6 °F - 64.4 °F 78% 30.12 in 10.0 mi SW 3.5 mph - N/A   Clear
4:54 AM 71.6 °F - 64.4 °F 78% 30.11 in 10.0 mi SSW 4.6 mph - N/A   Clear
5:13 AM 71.6 °F - 62.6 °F 73% 30.11 in 10.0 mi SSW 4.6 mph - N/A   Clear
5:34 AM 71.6 °F - 62.6 °F 73% 30.11 in 10.0 mi SSW 4.6 mph - N/A   Clear
5:54 AM 69.8 °F - 62.6 °F 78% 30.12 in 10.0 mi SW 3.5 mph - N/A   Clear
6:14 AM 71.6 °F - 62.6 °F 73% 30.12 in 10.0 mi Calm Calm - N/A   Clear
6:34 AM 71.6 °F - 62.6 °F 73% 30.12 in 10.0 mi SSW 3.5 mph - N/A   Clear
6:54 AM 69.8 °F - 62.6 °F 78% 30.13 in 10.0 mi SSW 4.6 mph - N/A   Clear
7:14 AM 69.8 °F - 62.6 °F 78% 30.13 in 10.0 mi SSW 3.5 mph - N/A   Clear
7:34 AM 71.6 °F - 62.6 °F 73% 30.14 in 10.0 mi Calm Calm - N/A   Clear
7:54 AM 71.6 °F - 62.6 °F 73% 30.15 in 10.0 mi SSW 3.5 mph - N/A   Clear
8:14 AM 71.6 °F - 64.4 °F 78% 30.15 in 10.0 mi Calm Calm - N/A   Clear
8:34 AM 71.6 °F - 64.4 °F 78% 30.15 in 10.0 mi Calm Calm - N/A   Clear
8:54 AM 73.4 °F - 64.4 °F 73% 30.15 in 10.0 mi SW 3.5 mph - N/A   Clear
9:14 AM 73.4 °F - 64.4 °F 73% 30.15 in 10.0 mi SSW 3.5 mph - N/A   Clear
9:34 AM 75.2 °F - 64.4 °F 69% 30.15 in 10.0 mi Calm Calm - N/A   Clear
9:54 AM 75.2 °F - 66.2 °F 73% 30.15 in 10.0 mi SSW 3.5 mph - N/A   Clear
10:14 AM 77.0 °F - 66.2 °F 69% 30.15 in 10.0 mi South 4.6 mph - N/A   Clear
10:34 AM 78.8 °F - 66.2 °F 65% 30.15 in 10.0 mi South 5.8 mph - N/A   Clear
10:54 AM 78.8 °F - 66.2 °F 65% 30.14 in 10.0 mi South 4.6 mph - N/A   Clear
11:14 AM 78.8 °F - 69.8 °F 74% 30.14 in 7.0 mi South 5.8 mph - N/A   Clear
11:34 AM 78.8 °F - 68.0 °F 69% 30.14 in 7.0 mi SSE 6.9 mph - N/A   Clear
11:54 AM 78.8 °F - 69.8 °F 74% 30.15 in 7.0 mi SSE 9.2 mph - N/A   Clear
12:14 PM 78.8 °F - 69.8 °F 74% 30.15 in 5.0 mi South 9.2 mph - N/A   Haze
12:34 PM 78.8 °F - 69.8 °F 74% 30.14 in 7.0 mi South 9.2 mph - N/A   Clear
12:54 PM 80.6 °F 83.9 °F 69.8 °F 70% 30.12 in 7.0 mi South 8.1 mph - N/A   Clear
1:14 PM 80.6 °F 83.9 °F 69.8 °F 70% 30.13 in 7.0 mi SSE 9.2 mph - N/A   Clear
1:34 PM 78.8 °F - 69.8 °F 74% 30.12 in 7.0 mi SSE 9.2 mph - N/A   Clear
1:54 PM 80.6 °F 83.9 °F 69.8 °F 70% 30.11 in 10.0 mi SSE 9.2 mph - N/A   Clear
2:14 PM 80.6 °F 83.9 °F 69.8 °F 70% 30.10 in 10.0 mi SSE 11.5 mph - N/A   Clear
2:34 PM 80.6 °F 83.9 °F 69.8 °F 70% 30.10 in 10.0 mi SSE 8.1 mph - N/A   Clear
2:54 PM 80.6 °F 83.9 °F 69.8 °F 70% 30.09 in 10.0 mi SSE 9.2 mph - N/A   Clear
3:14 PM 80.6 °F 83.9 °F 69.8 °F 70% 30.09 in 10.0 mi SSE 8.1 mph - N/A   Clear
3:34 PM 80.6 °F 83.9 °F 69.8 °F 70% 30.08 in 10.0 mi SSE 9.2 mph - N/A   Clear
3:45 PM 82.4 °F 86.3 °F 69.8 °F 66% 30.07 in 10.0 mi SSE 10.4 mph - N/A   Clear
4:14 PM 80.6 °F 83.9 °F 69.8 °F 70% 30.06 in 10.0 mi SSE 9.2 mph - N/A   Clear
4:34 PM 80.6 °F 83.9 °F 69.8 °F 70% 30.06 in 10.0 mi SSE 9.2 mph - N/A   Clear
4:54 PM 80.6 °F 83.9 °F 69.8 °F 70% 30.05 in 10.0 mi SSE 9.2 mph - N/A   Clear
5:14 PM 80.6 °F 83.2 °F 68.0 °F 65% 30.05 in 10.0 mi SSE 8.1 mph - N/A   Clear
5:33 PM 80.6 °F 83.2 °F 68.0 °F 65% 30.05 in 10.0 mi SSE 10.4 mph - N/A   Clear
5:54 PM 80.6 °F 83.2 °F 68.0 °F 65% 30.05 in 10.0 mi SSE 9.2 mph - N/A   Scattered Clouds
6:14 PM 80.6 °F 83.2 °F 68.0 °F 65% 30.04 in 10.0 mi SSE 6.9 mph - N/A   Scattered Clouds
6:33 PM 78.8 °F - 68.0 °F 69% 30.04 in 10.0 mi SSE 8.1 mph - N/A   Scattered Clouds
6:54 PM 80.6 °F 82.7 °F 66.2 °F 61% 30.03 in 10.0 mi SSE 8.1 mph - N/A   Mostly Cloudy
7:14 PM 80.6 °F 82.7 °F 66.2 °F 61% 30.02 in 10.0 mi SSE 9.2 mph - N/A   Scattered Clouds
7:33 PM 80.6 °F 82.7 °F 66.2 °F 61% 30.01 in 10.0 mi SSE 9.2 mph - N/A   Clear
7:54 PM 78.8 °F - 68.0 °F 69% 30.01 in 10.0 mi South 6.9 mph - N/A   Clear
8:14 PM 77.0 °F - 69.8 °F 78% 30.01 in 10.0 mi South 5.8 mph - N/A   Clear
8:34 PM 75.2 °F - 71.6 °F 89% 30.00 in 7.0 mi South 4.6 mph - N/A   Clear
8:54 PM 75.2 °F - 71.6 °F 89% 30.00 in 5.0 mi South 4.6 mph - N/A   Haze
9:14 PM 78.8 °F - 69.8 °F 74% 30.01 in 10.0 mi SW 4.6 mph - N/A   Clear
9:34 PM 77.0 °F - 68.0 °F 74% 30.03 in 10.0 mi SW 4.6 mph - N/A   Clear
9:54 PM 77.0 °F - 69.8 °F 78% 30.03 in 10.0 mi SSW 4.6 mph - N/A   Clear
10:14 PM 77.0 °F - 69.8 °F 78% 30.04 in 10.0 mi SW 3.5 mph - N/A   Clear
10:34 PM 77.0 °F - 69.8 °F 78% 30.04 in 10.0 mi SSW 3.5 mph - N/A   Clear
10:54 PM 75.2 °F - 69.8 °F 83% 30.05 in 10.0 mi SSW 4.6 mph - N/A   Clear
11:14 PM 75.2 °F - 69.8 °F 83% 30.05 in 10.0 mi SSW 6.9 mph - N/A   Clear
11:34 PM 75.2 °F - 69.8 °F 83% 30.04 in 10.0 mi SSW 6.9 mph - N/A   Clear
11:54 PM 75.2 °F - 69.8 °F 83% 30.04 in 10.0 mi SW 5.8 mph - N/A   Clear